Location: De Har
(53.3413°N, 6.6858°E)
Time: 17:14:54
(UTC+00:00)

Cosmos 2058 Rocket - Pass Details

Date: 22 April 2026
Orbit: 603 x 633 km, 82.5° (Epoch: 9 May)

Event Time Altitude Azimuth Distance (km) Brightness Sun altitude
Exits shadow 01:32:06 48° 218° (SW) 819 3.2 -19.7°
Maximum altitude 01:33:12 69° 283° (WNW) 670 3.1 -19.6°
Drops below altitude 10° 01:37:36 10° 7° (N) 1,995 6.6 -19.2°
Sets 01:39:51 0° 10° (N) 2,900 7.7 -19.0°
